This is the latest recevied weather packets stored in our database for station/object KE5QKR. If no packets are shown the sender has not sent any weather packets the latest 10 day(s).
| Time | Temp. | Humidity | Pressure | Rain* | Wind** | Luminosity | Snow |
|---|---|---|---|---|---|---|---|
| 1777921781 | 25.56° C | 46% | 1014.7 hPa | 0 mm | - | 802 W/m² | - |
| 1777921478 | 25.56° C | 45% | 1014.6 hPa | 0 mm | - | 804 W/m² | - |
| 1777921174 | 26.11° C | 43% | 1014.7 hPa | 0 mm | - | 812 W/m² | - |
| 1777920872 | 25.56° C | 48% | 1014.7 hPa | 0 mm | - | 819 W/m² | - |
| 1777920568 | 25° C | 45% | 1014.9 hPa | 0 mm | - | 825 W/m² | - |
| 1777920263 | 25° C | 43% | 1015 hPa | 0 mm | - | 832 W/m² | - |
| 1777919960 | 25.56° C | 50% | 1014.9 hPa | 0 mm | - | 838 W/m² | - |
| 1777919657 | 25.56° C | 45% | 1014.8 hPa | 0 mm | - | 841 W/m² | - |
| 1777919355 | 25° C | 46% | 1015 hPa | 0 mm | - | 847 W/m² | - |
| 1777919052 | 26.11° C | 44% | 1015.1 hPa | 0 mm | - | 848 W/m² | - |
| 1777918748 | 25.56° C | 44% | 1015 hPa | 0 mm | - | 853 W/m² | - |
| 1777918446 | 25.56° C | 49% | 1015 hPa | 0 mm | - | 833 W/m² | - |
| 1777918144 | 25.56° C | 47% | 1015.2 hPa | 0 mm | - | 856 W/m² | - |
| 1777917843 | 26.11° C | 44% | 1015.2 hPa | 0 mm | - | 859 W/m² | - |
| 1777917541 | 25° C | 52% | 1015.3 hPa | 0 mm | - | 847 W/m² | - |
| 1777917237 | 25° C | 46% | 1015.2 hPa | 0 mm | - | 865 W/m² | - |
| 1777916935 | 25° C | 50% | 1015.6 hPa | 1.78 mm | - | 863 W/m² | - |
| 1777916632 | 24.44° C | 49% | 1015.2 hPa | 1.78 mm | - | 865 W/m² | - |
| 1777916329 | 25° C | 47% | 1015.1 hPa | 0 mm | - | 864 W/m² | - |
| 1777916026 | 25.56° C | 47% | 1015.3 hPa | 0 mm | - | 857 W/m² | - |
| 1777915723 | 25° C | 49% | 1015.3 hPa | 0 mm | - | 863 W/m² | - |
| 1777915420 | 25° C | 50% | 1015.3 hPa | 0 mm | - | 862 W/m² | - |
| 1777915115 | 24.44° C | 47% | 1015.4 hPa | 0 mm | - | 856 W/m² | - |
| 1777914813 | 24.44° C | 54% | 1015.8 hPa | 0 mm | - | 857 W/m² | - |
| 1777914510 | 23.89° C | 51% | 1015.6 hPa | 0 mm | - | 856 W/m² | - |
* Rain latest hour (hover to see other rain measurements)
** Current wind speed in m/s (hover to see current wind gust speed)